AO-07 1 07530U 74089B 20156.48289936 -.00000046 00000-0 -41964-5 0 9997 2 07530 101.7988 126.2965 0012505 030.6530 082.2307 12.53643715084362 UO-11 1 14781U 84021B 20156.67344083 .00000092 00000-0 17338-4 0 9992 2 14781 97.5903 169.2840 0007105 237.9207 122.1318 14.83169863950932 LO-19 1 20442U 90005G 20156.80400289 -.00000021 00000-0 89144-5 0 9996 2 20442 98.6916 104.0103 0011506 186.7165 173.3866 14.32954029586809 HUBBLE 1 20580U 90037B 20156.14463410 .00000398 00000-0 13236-4 0 9990 2 20580 28.4705 47.6892 0002510 310.0593 185.6318 15.09392443454047 MET-2/21 1 22782U 93055A 20156.81245882 .00000011 00000-0 -29721-5 0 9994 2 22782 82.5502 243.6097 0021048 270.4056 226.0887 13.83827371351561 AO-27 1 22825U 93061C 20155.93942260 -.00000007 00000-0 15340-4 0 9991 2 22825 098.9232 158.0519 0009392 060.4261 299.7856 14.30086063391881 IO-26 1 22826U 93061D 20156.41865082 -.00000005 00000-0 16103-4 0 9998 2 22826 098.9173 158.4918 0009772 048.2187 311.9828 14.30421655392186 FO-29 1 24278U 96046B 20156.74600699 -.00000025 00000-0 88922-5 0 9995 2 24278 98.5824 268.2417 0351043 47.8768 315.1649 13.53097608175416 NOAA-15 1 25338U 98030A 20156.66369363 .00000081 00000-0 52562-4 0 9990 2 25338 98.7174 181.7795 0009332 303.6286 56.4003 14.25969695147402 GO-32 1 25397U 98043D 20156.30291444 -.00000033 00000-0 49873-5 0 9994 2 25397 098.7279 097.9004 0002404 093.0184 267.1270 14.23685657137681 ISS 1 25544U 98067A 20156.78519672 .00001397 00000-0 33044-4 0 9997 2 25544 51.6449 49.8512 0001883 28.0216 81.0557 15.49422203230091 NO-44 1 26931U 01043C 20156.37524933 -.00000029 00000-0 20734-4 0 9991 2 26931 067.0496 176.1455 0005897 270.3884 089.6542 14.30578654975205 SO-50 1 27607U 02058C 20156.28819253 -.00000031 00000-0 16225-4 0 9994 2 27607 064.5565 054.6202 0049569 180.7841 179.3193 14.75637558938910 CO-55 1 27844U 03031E 20156.48766199 .00000046 00000-0 40438-4 0 9999 2 27844 98.6816 164.4191 0011150 92.9839 267.2615 14.22240605878298 CO-57 1 27848U 03031J 20156.58091636 .00000035 00000-0 35715-4 0 9991 2 27848 098.6883 165.0668 0010989 103.6011 256.6391 14.21826980878112 RS-22 1 27939U 03042A 20156.69863850 .00000128 00000-0 31572-4 0 9991 2 27939 98.0883 291.6893 0013583 39.0996 321.1191 14.66863864892146 NOAA-18 1 28654U 05018A 20156.48357476 .00000066 00000-0 60530-4 0 9997 2 28654 099.0444 212.7908 0013157 266.9924 092.9742 14.12515249775085 CO-58 1 28895U 05043F 20156.63118359 .00000086 00000-0 25482-4 0 9993 2 28895 98.0079 293.3467 0015853 325.1695 34.8469 14.63772187778961 Falconsat-3 1 30776U 07006E 20156.76357859 .00002527 00000-0 67854-4 0 9990 2 30776 35.4354 1.1996 0001577 49.6664 310.4201 15.37765671734889 CO-65 1 32785U 08021C 20156.82802169 .00000162 00000-0 23053-4 0 9992 2 32785 97.5723 145.4007 0013211 168.3121 191.8406 14.88472368656064 AAUSAT2 1 32788U 08021F 20156.66920780 .00000166 00000-0 20055-4 0 9990 2 32788 97.4908 161.7373 0013344 97.6594 262.6144 14.95056693657506 DO-64 1 32789U 08021G 20156.39302068 .00001440 00000-0 98173-4 0 9996 2 32789 97.4190 199.6512 0012053 9.5108 350.6346 15.07715201659947 CO-66 1 32791U 08021J 20156.64945218 .00000276 00000-0 33163-4 0 9991 2 32791 97.5403 151.3661 0014275 139.7673 220.4606 14.91049436656558 RS-30 1 32953U 08025A 20156.68054527 .00000037 00000-0 19437-3 0 9995 2 32953 82.5001 285.8431 0020099 83.2023 277.1339 12.43096377546042 PRISM 1 33493U 09002B 20156.42053729 .00000176 00000-0 20834-4 0 9994 2 33493 098.1438 096.1718 0016125 097.2941 263.0113 14.97031612617752 NOAA-19 1 33591U 09005A 20156.55741766 .00000049 00000-0 51969-4 0 9997 2 33591 099.1953 161.5703 0014978 110.7381 249.5396 14.12412432583314 TISAT-1 1 36799U 10035E 20156.55489173 .00000450 00000-0 51231-4 0 9994 2 36799 098.1934 326.3335 0012592 018.9304 341.2378 14.91356396537009 JUGNU 1 37839U 11058B 20156.71058385 .00000309 00000-0 22858-4 0 9997 2 37839 19.9626 0.0432 0018910 247.7615 179.0533 14.12681155447091 SRMSAT 1 37841U 11058D 20156.43442051 .00000300 00000-0 19973-4 0 9991 2 37841 019.9729 065.7733 0011984 101.0969 055.8002 14.10659864446325 AO-71 1 37854U 11061E 20156.22186474 .00001445 00000-0 79753-4 0 9993 2 37854 101.6995 240.6461 0158523 101.2017 260.7060 15.07271050469939 HRBE 1 37855U 11061F 20156.69050550 .00001604 00000-0 86165-4 0 9992 2 37855 101.7130 238.5214 0171240 112.8550 249.0845 15.06290267469756 HORYU-2 1 38340U 12025D 20156.73537216 .00000152 00000-0 30117-4 0 9990 2 38340 98.2812 209.9611 0012869 83.4601 276.8072 14.75854010433081 RS-40 1 38735U 12041C 20156.40642189 -.00000001 00000-0 -77223-4 0 9990 2 38735 082.4779 008.8029 0016587 187.4878 172.5958 12.42579717356233 BEESAT-3 1 39135U 13015F 20156.72598989 .00000926 00000-0 54313-4 0 9999 2 39135 64.8657 342.5167 0036791 249.9128 109.8037 15.18158464393677 BEESAT-2 1 39136U 13015G 20156.76846720 .00000832 00000-0 50796-4 0 9990 2 39136 64.8695 347.3073 0030215 280.1271 79.6447 15.17550923393584 ZACUBE-1 1 39417U 13066B 20156.66541398 .00000185 00000-0 29615-4 0 9997 2 39417 97.5645 155.3999 0057830 321.1300 38.5761 14.81274790353145 TRITON-1 1 39427U 13066M 20156.73238095 .00000178 00000-0 35982-4 0 9999 2 39427 97.7236 118.3666 0114800 118.3410 242.9428 14.68000351349997 GOMX-1 1 39430U 13066Q 20156.70957424 .00000116 00000-0 30346-4 0 9995 2 39430 97.7898 96.0071 0149870 224.3979 134.5135 14.59398454347948 LO-74 1 39440U 13066AA 20156.54155930 .00000194 00000-0 33807-4 0 9991 2 39440 097.6302 139.7565 0080786 023.2159 337.2668 14.76010769350673 AO-73 1 39444U 13066AE 20155.99540403 .00000254 00000-0 37532-4 0 9992 2 39444 97.5589 156.9905 0056825 315.5291 44.1368 14.82126891351968 SPROUT 1 39770U 14029E 20156.77225453 .00000505 00000-0 61380-4 0 9993 2 39770 97.8951 263.1057 0009316 19.1296 341.0247 14.87756501327173 DUCHIFAT-1 1 40021U 14033M 20156.79620167 .00000229 00000-0 29116-4 0 9996 2 40021 97.9426 87.9543 0012299 336.1586 23.9060 14.90903527324006 NANOSATCBR1 1 40024U 14033Q 20156.34198161 .00000355 00000-0 42656-4 0 9998 2 40024 97.9276 83.9205 0011787 342.5615 17.5196 14.90072729323805 DTUSAT-2 1 40030U 14033W 20156.31149221 .00000202 00000-0 27630-4 0 9991 2 40030 097.9036 078.1184 0011546 346.2396 013.8504 14.88713621323057 EO-80 1 40032U 14033Y 20156.73322650 .00000232 00000-0 30897-4 0 9990 2 40032 97.9043 78.5413 0011492 345.5044 14.5842 14.88662262323617 ANTELSAT 1 40034U 14033AA 20156.57390544 .00000177 00000-0 33449-4 0 9995 2 40034 097.7160 012.8848 0059709 041.4540 319.1176 14.74256065319980 VELOX-1 1 40057U 14034E 20156.83983764 .00000301 00000-0 49455-4 0 9995 2 40057 98.2776 293.4602 0011023 178.8920 181.2314 14.77871789319771 DAURIA DX 1 1 40071U 14037C 20156.81824246 .00000112 00000-0 21921-4 0 9999 2 40071 98.4600 334.5222 0008535 169.5240 190.6156 14.81365887319383 HODOYOSHI-1 1 40299U 14070B 20156.79603941 .00000568 00000-0 26255-4 0 9992 2 40299 97.3224 233.8271 0011475 236.4659 271.6146 15.24062183309889 CHUBUSAT-1 1 40300U 14070C 20156.80148582 .00000600 00000-0 28754-4 0 9995 2 40300 97.2885 226.3409 0018167 257.2379 242.2944 15.22503171309581 QSAT-EOS 1 40301U 14070D 20156.87697065 .00001614 00000-0 63353-4 0 9998 2 40301 97.2929 231.6063 0023791 230.3651 241.1703 15.26924681310018 FIREBIRD FU3 1 40377U 15003B 20156.22904440 .00001665 00000-0 67388-4 0 9993 2 40377 99.0953 213.7263 0123684 358.8464 1.2462 15.20046624295308 FIREBIRD FU4 1 40378U 15003C 20156.74004083 .00001561 00000-0 63400-4 0 9991 2 40378 99.0957 214.4396 0123853 357.0050 3.0424 15.20063207295380 GRIFEX 1 40379U 15003D 20156.67947914 .00001359 00000-0 60450-4 0 9990 2 40379 99.1029 206.3586 0133249 21.8885 338.7962 15.16402292294914 NO-84 1 40654U 15025D 20155.28853082 .00014730 00000-0 17075-3 0 9494 2 40654 54.9873 5.9979 0119161 149.9534 210.8383 15.53882300166823 DEORBITSAIL 1 40719U 15032E 20156.49396482 .00000339 00000-0 55291-4 0 9992 2 40719 097.8717 045.4547 0014798 249.0390 110.9237 14.76998859264187 NUDT-PHONESAT 1 40900U 15049B 20156.84649527 .00002219 00000-0 94172-4 0 9992 2 40900 97.4308 167.9104 0013557 34.7172 43.0873 15.24074973261274 XW-2A 1 40903U 15049E 20156.79918072 .00001974 00000-0 46581-4 0 9991 2 40903 97.2889 205.7429 0011761 315.0531 156.3089 15.43059060264528 XW-2C 1 40906U 15049H 20156.84378536 .00000433 00000-0 25927-4 0 9995 2 40906 97.4763 158.3795 0016287 60.9179 59.7271 15.16064035260348 XW-2D 1 40907U 15049J 20156.83938953 .00000520 00000-0 30248-4 0 9999 2 40907 97.4752 158.0811 0015623 57.9873 62.2261 15.16296037260362 LILACSAT-2 1 40908U 15049K 20156.81698079 .00000203 00000-0 14744-4 0 9991 2 40908 97.4902 156.4272 0017433 67.3378 10.5409 15.14036051260084 XW-2E 1 40909U 15049L 20156.83144738 .00000998 00000-0 51677-4 0 9999 2 40909 97.4632 161.5309 0014826 50.9318 71.0353 15.18417631260618 XW-2F 1 40910U 15049M 20156.84360017 .00000935 00000-0 49305-4 0 9998 2 40910 97.4678 160.6392 0015952 48.7524 71.8702 15.17926766260425 XW-2B 1 40911U 15049N 20156.81570955 .00000681 00000-0 38585-4 0 9996 2 40911 97.4757 158.7514 0015615 58.8944 23.1247 15.16222765260254 DCBB 1 40912U 15049P 20156.85820801 .00001168 00000-0 56755-4 0 9999 2 40912 97.4484 164.7891 0015627 28.4137 94.6379 15.20319329260805 TW-1C 1 40926U 15051B 20156.91754804 .00022925 00000-0 23024-3 0 9999 2 40926 97.0847 208.6129 0007912 126.7792 358.1828 15.65447459265063 TW-1A 1 40928U 15051D 20156.88834581 .00002953 00000-0 69828-4 0 9990 2 40928 97.1105 185.0264 0009039 225.3753 258.2404 15.42561912263431 IO-86 1 40931U 15052B 20155.16534809 .00000602 00000-0 -53276-5 0 9996 2 40931 5.9974 77.2825 0013238 71.1373 289.0392 14.76635936253141 LQSat 1 40958U 15057A 20156.14462728 .00000016 00000-0 10021-4 0 9997 2 40958 97.8532 219.9520 0017926 188.2744 171.8172 14.73120811250540 ATHENOXAT-1 1 41168U 15077C 20156.65579345 .00001705 00000-0 53523-4 0 9993 2 41168 14.9874 155.3121 0011310 310.0643 49.8686 15.14362994247408 ChubuSat-2 1 41338U 16012B 20156.79440341 .00000291 00000-0 15901-4 0 9997 2 41338 31.0040 66.8846 0013681 350.6963 9.3418 15.00293095235838 ChubuSat-3 1 41339U 16012C 20156.79043629 .00000290 00000-0 15776-4 0 9995 2 41339 31.0128 64.5609 0013721 358.1961 1.8625 15.00458026235838 Horyu-4 1 41340U 16012D 20156.73520751 .00000437 00000-0 26326-4 0 9993 2 41340 31.0060 52.7789 0013752 22.1397 337.9831 15.01497487235969 OUFTI-1 1 41458U 16025C 20156.53362731 .00001230 00000-0 65724-4 0 9994 2 41458 098.1038 266.4257 0162218 253.0750 105.2638 15.06815443225536 e-st@r-II 1 41459U 16025D 20156.70835158 .00001769 00000-0 93008-4 0 9995 2 41459 98.1020 266.0333 0164067 254.3719 103.9362 15.06387455225527 AAUSAT4 1 41460U 16025E 20156.86502048 .00001300 00000-0 67703-4 0 9997 2 41460 98.0969 268.4805 0152724 242.9282 115.6335 15.08665286225742 LO-87 1 41557U 16033B 20156.80573310 .00001000 00000-0 39257-4 0 9997 2 41557 97.4031 247.1114 0014914 128.6293 231.6284 15.27999250223842 NuSat2 1 41558U 16033C 20156.78754146 .00001309 00000-0 47609-4 0 9995 2 41558 97.4085 249.3484 0013992 125.9955 234.2585 15.29983218223950 Lapan A3 1 41603U 16040E 20156.83643831 .00000019 00000-0 39759-5 0 9993 2 41603 97.3094 210.7763 0011841 244.2040 236.0396 15.19836773219220 Swayam 1 41607U 16040J 20156.66164509 .00001337 00000-0 57662-4 0 9994 2 41607 97.3182 216.3333 0011795 226.5846 133.4410 15.24211711219471 Pratham 1 41783U 16059A 20156.54657830 .00000045 00000-0 17883-4 0 9996 2 41783 098.0171 212.3687 0033433 359.4074 000.7083 14.63057197196993 AlSat 1N 1 41789U 16059G 20156.71183284 .00000056 00000-0 19540-4 0 9992 2 41789 98.0207 215.3169 0028011 346.8716 13.1752 14.64321359197162 ScatSat 1 41790U 16059H 20156.84602660 .00000373 00000-0 10521-3 0 9993 2 41790 98.1614 197.5079 0005299 334.7029 25.3871 14.50921847195397 TY-1 1 41844U 16066D 20156.84060479 .00000877 00000-0 38125-4 0 9997 2 41844 97.4027 165.1517 0016000 34.0983 88.2057 15.24837384198342 Pegasus-1 1 41846U 16066F 20156.41404136 .00000194 00000-0 40843-4 0 9996 2 41846 098.6622 206.3303 0365595 272.0408 083.8960 14.37764219187094 CAS-2T 1 41847U 16066G 20156.68227009 .00000063 00000-0 20865-4 0 9995 2 41847 98.6547 207.0673 0364493 266.9903 88.9527 14.38067430187588 EO-88 1 42017U 17008BX 20156.70093937 .00001371 00000-0 55328-4 0 9991 2 42017 97.3603 224.4489 0006627 23.1393 337.0143 15.26469707183605 CAS-4B 1 42759U 17034B 20156.91410927 .00000072 00000-0 17894-4 0 9991 2 42759 43.0177 95.9446 0012329 310.3342 127.2242 15.09822629164073 CAS-4A 1 42761U 17034D 20156.92018602 .00000046 00000-0 16280-4 0 9998 2 42761 43.0181 95.2191 0012709 311.5302 98.6316 15.09900896164078 UCLSat 1 42765U 17036A 20156.67803314 .00001140 00000-0 50555-4 0 9997 2 42765 97.3015 211.2623 0013028 74.3383 285.9291 15.23504947164041 NIUSat 1 42766U 17036B 20156.71192180 .00000878 00000-0 41650-4 0 9998 2 42766 97.3010 208.8021 0017079 67.8630 292.4417 15.21703916163758 LituanicaSAT 2 1 42768U 17036D 20156.72534753 .00002008 00000-0 85427-4 0 9994 2 42768 97.3070 211.2610 0016249 64.7794 295.5126 15.24036420163903 Aalto 1 1 42775U 17036L 20156.69672772 .00000729 00000-0 34995-4 0 9994 2 42775 97.2991 209.1343 0015448 67.6064 292.6807 15.21827164163738 URSA MAIOR 1 42776U 17036M 20156.68756222 .00000794 00000-0 37675-4 0 9997 2 42776 97.3003 209.4044 0015263 67.4263 292.8586 15.22008603163746 Max Valier Sat 1 42778U 17036P 20156.26430321 .00000947 00000-0 43595-4 0 9990 2 42778 097.3057 210.2644 0013922 072.1486 288.1268 15.22601267163721 Pegasus 1 42784U 17036V 20156.30657133 .00001109 00000-0 49702-4 0 9991 2 42784 97.3020 210.5957 0013588 76.1016 284.1731 15.23193738163775 NUDATSat 1 42787U 17036Y 20156.76861724 .00001472 00000-0 62625-4 0 9999 2 42787 97.3057 212.4092 0013101 66.0241 294.2371 15.24490050163767 SUCHAI 1 1 42788U 17036Z 20156.66389454 .00001292 00000-0 56532-4 0 9994 2 42788 97.3028 211.5197 0013113 73.7404 286.5274 15.23740587163938 SKCUBE 1 42789U 17036AA 20156.38026929 .00001229 00000-0 54169-4 0 9993 2 42789 097.3023 211.1002 0013001 074.8953 285.3722 15.23583536163802 VZLUSAT 1 1 42790U 17036AB 20156.16674571 .00001637 00000-0 69357-4 0 9991 2 42790 097.3048 211.8198 0012491 073.8209 286.4402 15.24479040163823 VENTA 1 1 42791U 17036AC 20156.15715534 .00001214 00000-0 53592-4 0 9991 2 42791 097.3021 210.9262 0012660 076.0685 284.1959 15.23567618163761 Robusta 1B 1 42792U 17036AD 20156.66402603 .00001236 00000-0 54180-4 0 9996 2 42792 97.3025 211.6237 0012580 74.4559 285.8066 15.23771453163872 D-SAT 1 42794U 17036AF 20156.62664726 .00000282 00000-0 29506-4 0 9994 2 42794 97.4942 189.9174 0127401 48.3772 312.8277 14.91275249160784 TechnoSat 1 42829U 17042E 20156.66705369 .00000097 00000-0 15070-4 0 9998 2 42829 97.5218 39.0467 0013488 333.7510 26.3024 14.91098589157389 QIKCOM-1 1 42983U 98067NF 20156.82837738 .00003651 00000-0 47870-4 0 9991 2 42983 51.6394 9.1413 0003706 20.2859 339.8282 15.61481195148319 AO-91 1 43017U 17073E 20156.73790725 .00000534 00000-0 46219-4 0 9995 2 43017 97.7238 69.4648 0258550 91.7724 271.3118 14.78921948137282 EcAMSat 1 43019U 98067NG 20156.81046482 .00007732 00000-0 79213-4 0 9999 2 43019 51.6410 355.6020 0003409 8.4619 351.6434 15.66078266230818 PICSAT 1 43132U 18004X 20156.25187090 .00001228 00000-0 52978-4 0 9990 2 43132 97.4474 227.6732 0011299 99.2067 261.0449 15.24390588133046 AO-92 1 43137U 18004AC 20156.48468004 .00000965 00000-0 42613-4 0 9999 2 43137 97.4461 227.7330 0010888 100.1413 260.1053 15.24103343133066 TianYi 2 1 43155U 18008A 20156.83782855 .00000433 00000-0 29161-4 0 9998 2 43155 97.4466 226.2498 0017194 186.3622 282.2785 15.11617693131019 Zhou Enlai 1 43156U 18008B 20156.85656530 .00001232 00000-0 77027-4 0 9993 2 43156 97.4514 226.1194 0014538 184.1513 242.2186 15.11166222130972 TianYi 6 1 43158U 18008D 20156.75383938 .00000940 00000-0 60466-4 0 9997 2 43158 97.4447 225.0930 0013262 183.5180 328.2391 15.10699329130905 S-Net G 1 43186U 18014G 20156.74685173 .00000329 00000-0 33752-4 0 9999 2 43186 97.6949 64.7917 0009551 266.5171 93.4959 14.96803112127790 S-Net H 1 43187U 18014H 20156.74667373 .00000325 00000-0 33417-4 0 9996 2 43187 97.6946 64.7703 0009549 266.4463 93.5666 14.96802984127793 S-Net J 1 43188U 18014J 20156.67969082 .00000308 00000-0 31987-4 0 9992 2 43188 97.6950 64.7336 0009559 266.8420 93.1708 14.96802672127785 S-Net K 1 43189U 18014K 20156.74695795 .00000333 00000-0 34175-4 0 9998 2 43189 97.6946 64.7660 0009535 266.4192 93.5939 14.96802192126345 FMN 1 1 43192U 18015A 20156.87289990 .00002222 00000-0 90073-4 0 9991 2 43192 97.4408 286.4232 0017035 130.2830 350.1829 15.25579622129984 Shaonian Xing 1 43199U 18015H 20156.86782951 .00001653 00000-0 67380-4 0 9994 2 43199 97.4185 284.7238 0017907 139.7889 341.0878 15.25745964130042 1KUNS-PF 1 43466U 98067NP 20156.67350821 .00766343 35938-3 58290-3 0 9996 2 43466 51.6201 317.0927 0011495 299.9291 60.0583 16.14376350118480 UBAKUSAT 1 43467U 98067NQ 20156.79064641 .00026887 00000-0 18130-3 0 9992 2 43467 51.6334 346.8811 0000076 271.1097 88.9893 15.74905712118117 EnduroSat One 1 43551U 98067NZ 20155.90192138 .00051153 00000-0 26638-3 0 9997 2 43551 51.6341 349.1541 0001901 66.9961 293.1241 15.80401932108234 EQUISat 1 43552U 98067PA 20156.78577154 .00026281 00000-0 18596-3 0 9998 2 43552 51.6366 353.7149 0003684 62.1714 297.9657 15.73794642108217 UiTMSat 1 1 43589U 98067PD 20156.00734193 .00038255 00000-0 23970-3 0 9997 2 43589 51.6355 355.8307 0003226 85.1902 274.9466 15.76397679103850 Maya 1 1 43590U 98067PE 20156.76081760 .00035504 00000-0 22233-3 0 9992 2 43590 51.6315 351.8629 0002956 79.8189 280.3144 15.76449216103902 Bhutan 1 1 43591U 98067PF 20156.54441619 .00035934 00000-0 22362-3 0 9992 2 43591 051.6371 352.7403 0003251 085.2148 274.9223 15.76584871103870 SiriusSat 1 1 43595U 98067PG 20156.76817415 .00029671 00000-0 20660-3 0 9991 2 43595 51.6324 356.4489 0001164 49.5235 310.5866 15.74103106103021 SiriusSat 2 1 43596U 98067PH 20156.82906883 .00029842 00000-0 20873-3 0 9993 2 43596 51.6339 356.9294 0001489 41.0009 319.1102 15.73994115103028 Tanusha-3 1 43597U 98067PJ 20156.43512497 .00076371 00000-0 32889-3 0 9994 2 43597 051.6290 346.5427 0000531 245.0419 115.0529 15.84316207103125 SurfSat 1 43614U 18070B 20156.14237104 .00002826 00000-0 72799-4 0 9996 2 43614 93.0194 149.0862 0016943 37.8930 322.3513 15.39133206 96433 CP-7 DAVE 1 43615U 18070C 20156.49766729 .00002625 00000-0 67946-4 0 9990 2 43615 093.0195 149.2243 0017005 036.1976 324.0426 15.38992961096489 ELFIN-B 1 43616U 18070D 20156.67932868 .00004081 00000-0 10100-3 0 9997 2 43616 93.0154 149.2377 0017480 37.0986 323.1474 15.40320968 96557 ELFIN-A 1 43617U 18070E 20156.06456304 .00004366 00000-0 10750-3 0 9994 2 43617 93.0207 149.4843 0016805 36.7690 323.4714 15.40490642 96462 STARS-Me Mother 1 43640U 98067PQ 20156.72371300 .00012014 00000-0 12277-3 0 9994 2 43640 51.6358 12.8034 0003367 355.5746 4.5219 15.65507443 94733 CubeBel 1 1 43666U 18083E 20156.85293145 .00001108 00000-0 57332-4 0 9990 2 43666 97.4900 183.4432 0016215 48.4910 76.6670 15.18241065 88700 Changshagaoxin 1 43669U 18083H 20156.81640888 .00000720 00000-0 39489-4 0 9991 2 43669 97.4774 181.6381 0012016 44.6771 315.5428 15.17278852 88612 Ten-Koh 1 43677U 18084G 20156.32953027 .00000171 00000-0 23424-4 0 9991 2 43677 097.8812 273.4240 0015606 196.7666 163.3038 14.90285991086988 PO-101 1 43678U 18084H 20156.86283433 -.00000223 00000-0 -16447-4 0 9995 2 43678 97.8819 275.2674 0009071 212.6620 147.4027 14.91629491 87142 IRVINE 01 1 43693U 18088D 20156.74422197 .00002691 00000-0 11293-3 0 9997 2 43693 85.0360 85.4253 0017309 346.6619 13.4163 15.22832286 86912 QO-100 1 43700U 18090A 20156.41229979 .00000140 00000-0 00000-0 0 9994 2 43700 000.0154 316.9501 0001535 135.3716 335.2341 01.00273531005571 Reaktor Hello World 1 43743U 18096AA 20156.26051015 .00001193 00000-0 47115-4 0 9995 2 43743 97.4213 230.2009 0018202 169.4560 190.7065 15.27382468 84386 MinXSS-2 1 43758U 18099A 20156.75417338 .00000745 00000-0 72095-4 0 9999 2 43758 97.7068 228.9016 0014376 227.3729 132.6280 14.95661726 82051 AO-95 1 43770U 18099N 20156.18912725 .00000025 00000-0 75695-5 0 9991 2 43770 97.7059 227.8005 0013345 238.1158 121.8764 14.94981337 81937 RANGE-B 1 43772U 18099Q 20156.74643754 .00000771 00000-0 75386-4 0 9992 2 43772 97.7127 228.8424 0013171 221.3644 138.6580 14.95169761 82014 RANGE-A 1 43773U 18099R 20156.71506582 -.00000211 00000-0 -14075-4 0 9996 2 43773 97.7003 227.9683 0012546 222.1408 137.8849 14.94962728 82008 MOVE-II 1 43780U 18099Y 20156.74398822 .00000866 00000-0 83550-4 0 9991 2 43780 97.7063 228.5473 0012313 232.2385 127.7721 14.95390267 82016 SNUSat 2 1 43782U 18099AA 20156.15277129 .00000653 00000-0 64511-4 0 9994 2 43782 097.7057 227.9716 0011645 222.4800 137.5521 14.95252459081931 SnugLite 1 43784U 18099AC 20156.72425802 .00000072 00000-0 11708-4 0 9997 2 43784 97.7021 228.3634 0014007 230.3999 129.5986 14.95346877 82036 ITASat 1 1 43786U 18099AE 20156.45672646 -.00000035 00000-0 20401-5 0 9990 2 43786 097.7075 228.4736 0014105 230.5040 129.4935 14.95321587081997 EAGLET 1 1 43790U 18099AJ 20156.71962063 -.00000184 00000-0 -11295-4 0 9995 2 43790 97.7064 228.9814 0012367 234.3521 125.6549 14.95702734 81745 ESEO 1 43792U 18099AL 20156.72908304 .00000003 00000-0 54757-5 0 9995 2 43792 97.7036 228.8212 0012213 230.6376 129.3764 14.95595668 81807 CSIM 1 43793U 18099AM 20156.44307741 .00000007 00000-0 58094-5 0 9995 2 43793 097.7035 228.5137 0011856 227.9615 132.0598 14.96040399081743 Astrocast 0.1 1 43798U 18099AS 20156.71056526 -.00000307 00000-0 -22325-4 0 9994 2 43798 97.7062 229.0687 0011589 211.8712 148.1809 14.95869453 82043 JO-97 1 43803U 18099AX 20156.74043586 .00000631 00000-0 62115-4 0 9995 2 43803 97.7035 228.5744 0014048 229.2379 130.7624 14.95497282 82031 Suomi 100 1 43804U 18099AY 20156.74116832 .00000630 00000-0 62038-4 0 9994 2 43804 97.7034 228.5641 0014093 229.4221 130.5774 14.95486484 82042 Al Farabi 2 1 43805U 18099AZ 20156.78328504 -.00000070 00000-0 -11250-5 0 9991 2 43805 97.7042 228.6859 0014136 229.8138 130.1846 14.95606029 82059 PWSat 2 1 43814U 18099BJ 20156.69913267 .00023906 00000-0 13948-2 0 9991 2 43814 97.7886 237.1620 0009859 185.7017 174.4102 15.11906859 81797 CHOMPTT 1 43855U 18104G 20156.55836993 .00000818 00000-0 32894-4 0 9998 2 43855 085.0393 183.7398 0019930 096.6312 263.7200 15.22952086081563 ISAT 1 43879U 18111D 20156.79162252 -.00000191 00000-0 -11788-4 0 9993 2 43879 97.7034 64.4256 0011846 290.0232 69.9714 14.96235830 76570 UWE-4 1 43880U 18111E 20156.70741604 .00000333 00000-0 34397-4 0 9997 2 43880 97.7050 64.6046 0010733 291.9612 68.0469 14.96468931 76583 Sparrow 1 43881U 18111F 20156.69005510 .00000782 00000-0 73832-4 0 9990 2 43881 97.7052 64.6579 0010855 289.0222 70.9823 14.96526092 76586 Lume 1 1 43908U 18111AJ 20156.71288376 .00000849 00000-0 36648-4 0 9994 2 43908 97.2670 57.0224 0020982 183.6216 176.4874 15.25018168 80085 FO-98 1 43933U 19003B 20156.63639279 .00000620 00000-0 29948-4 0 9998 2 43933 97.2310 206.8659 0016155 288.8846 71.0639 15.22098155 76584 FO-99 1 43937U 19003F 20156.23229527 .00001074 00000-0 46466-4 0 9997 2 43937 97.2272 207.6805 0022226 271.4420 88.4272 15.24360202 76626 Delphini 1 1 44030U 98067PW 20156.82451286 .00017778 00000-0 17652-3 0 9995 2 44030 51.6354 18.7349 0003683 53.1231 307.0102 15.65848153 76534 MYSat 1 1 44045U 18092F 20156.31432941 .00002841 00000-0 88857-4 0 9993 2 44045 051.6443 106.0706 0010458 277.2835 082.6968 15.36628728073270 AstroCast 0.2 1 44083U 19018F 20156.72902455 .00000638 00000-0 31341-4 0 9999 2 44083 97.4215 217.9500 0012288 210.1732 149.8797 15.21592277 65445 AISTechSat 3 1 44103U 19018AB 20156.82529431 .00000765 00000-0 35331-4 0 9996 2 44103 97.4087 218.2047 0012048 226.7037 245.1372 15.23143242 65513 AISat 1 1 44104U 19018AC 20156.68756841 .00000606 00000-0 22005-4 0 9996 2 44104 97.4643 226.2800 0056518 257.8693 101.6213 15.31038611 65850 Raavana-1 1 44329U 98067QE 20156.68367646 .00009528 00000-0 13262-3 0 9993 2 44329 51.6404 38.1645 0004959 321.7048 38.3592 15.57690769 55019 Uguisu 1 44330U 98067QF 20156.69547897 .00008632 00000-0 12114-3 0 9994 2 44330 51.6398 38.2393 0004983 319.9528 40.1097 15.57611541 54991 NepaliSat-1 1 44331U 98067QG 20155.97060233 .00009950 00000-0 13813-3 0 9990 2 44331 051.6398 041.6506 0005024 320.6781 039.3846 15.57701949054896 Prox-1 1 44339U 19036A 20156.42467088 .00000773 00000-0 13380-3 0 9990 2 44339 24.0029 193.8719 0011490 13.1595 346.9213 14.52996848 50233 Oculus-ASR 1 44348U 19036K 20156.17250177 .00007380 00000-0 10731-3 0 9999 2 44348 028.5146 110.3559 0367999 166.1340 194.9670 15.02340928051803 Armadillo 1 44352U 19036P 20156.54217803 .00010226 00000-0 14926-3 0 9997 2 44352 28.5293 103.9835 0355858 175.7580 184.6170 15.04996064 51844 NO-104 1 44354U 19036R 20156.17966040 .00006780 00000-0 96301-4 0 9990 2 44354 028.5297 107.7583 0364887 169.2449 191.6196 15.03347484051814 NO-103 1 44355U 19036S 20156.16783464 .00012811 00000-0 17748-3 0 9996 2 44355 028.5306 099.8551 0344247 182.1143 177.7990 15.08565398051903 CP9 1 44360U 19036X 20156.17471917 .00023224 -59282-5 25874-3 0 9991 2 44360 028.5147 086.5039 0326745 204.6699 153.7944 15.15505785051911 Move-IIb 1 44398U 19038N 20156.65010364 .00000962 00000-0 58978-4 0 9996 2 44398 97.5354 118.0452 0025378 167.7251 192.4603 15.12298124 50643 SONATE 1 44400U 19038Q 20156.81385043 .00000313 00000-0 21959-4 0 9996 2 44400 97.5389 118.2233 0025519 166.0511 194.1430 15.11944131 50666 BeeSat 9 1 44412U 19038AC 20156.43400845 .00000734 00000-0 45967-4 0 9997 2 44412 097.5376 117.9287 0022825 172.1407 188.0186 15.12280906050304 JAISAT-1 1 44419U 19038F 20156.85533196 .00000693 00000-0 43068-4 0 9990 2 44419 97.5378 118.5996 0021752 169.6532 190.5151 15.12764958 50691 LightSail-2 1 44420U 19036AC 20156.57044765 .00003992 00000-0 84795-3 0 9994 2 44420 024.0105 189.2195 0019388 015.5804 344.5252 14.55581508048442 Taurus 1 1 44530U 19059C 20156.72056801 .00001499 00000-0 43686-3 0 9996 2 44530 98.5680 237.6837 0015175 192.0878 167.9938 14.45546109 38502 MO-106 1 44830U 19084G 20156.71001787 .00043669 00000-0 26009-3 0 9994 2 44830 96.9761 25.7556 0024271 284.6781 75.1795 15.77406612 28442 TRSI-Sat 1 44831U 19084H 20155.89086292 .00049145 00000-0 29619-3 0 9992 2 44831 096.9776 024.9380 0024566 287.3898 072.4682 15.77108311028328 MO-105 1 44832U 19084J 20156.71700886 .00051256 00000-0 28970-3 0 9992 2 44832 96.9760 25.9082 0022935 282.5310 77.3392 15.78595614 28459 Duchifat 3 1 44854U 19089C 20156.43924584 .00000213 00000-0 23665-4 0 9997 2 44854 036.9667 175.2634 0009279 316.8349 043.1669 14.99060290026347 OPS-SAT 1 44878U 19092F 20156.49392134 .00000851 00000-0 48358-4 0 9997 2 44878 097.4685 339.9879 0015352 046.5084 313.7422 15.15464265025573 FloripaSat 1 1 44885U 19093G 20156.76619585 .00000220 00000-0 34435-4 0 9999 2 44885 97.9570 233.0360 0016215 89.4510 270.8561 14.82028780 24822 RS-44 1 44909U 19096E 20156.06708255 .00000028 00000-0 73828-4 0 9990 2 44909 082.5220 004.2120 0216313 257.7694 099.9108 12.79707699020478 SwampSat-2 1 45115U 19071E 20156.77249249 .00008572 00000-0 25820-3 0 9994 2 45115 51.6423 64.0371 0013466 16.7557 343.3868 15.35080982 19175 HO-107 1 45119U 19071J 20156.29906029 .00002098 00000-0 75152-4 0 9992 2 45119 051.6435 066.8651 0012502 009.6521 350.4699 15.33529357019101 Phoenix 1 45258U 98067RB 20156.75133312 .00003764 00000-0 71971-4 0 9992 2 45258 51.6429 49.1118 0005448 299.1719 60.8725 15.50773428 16508 AztechSat-1 1 45261U 98067RE 20156.13899020 .00007721 00000-0 13513-3 0 9997 2 45261 51.6428 51.7770 0007154 315.0488 44.9922 15.51635490 16432 QARMAN 1 45263U 98067RG 20156.42676484 .00005809 00000-0 10583-3 0 9997 2 45263 051.6429 050.6973 0006671 313.1455 046.8976 15.51027525016517 Quetzal 1 1 45598U 98067RL 20156.75114933 .00005059 00000-0 95948-4 0 9996 2 45598 51.6434 49.8606 0003547 50.4727 309.6575 15.50186049 5822 /EX